MPEC 2007-V22 : 2007 VG3

The following Minor Planet Electronic Circular may be linked-to from your own Web pages, but must not otherwise be redistributed electronically.


Read MPEC 2007-V21 Read MPEC 2007-V23


M.P.E.C. 2007-V22                                Issued 2007 Nov. 4, 18:45 UT

     The Minor Planet Electronic Circulars contain information on unusual
         minor planets and routine data on comets.  They are published
   on behalf of Commission 20 of the International Astronomical Union by the
          Minor Planet Center, Smithsonian Astrophysical Observatory,
                          Cambridge, MA 02138, U.S.A.

             Prepared using the Tamkin Foundation Computer Network

                              MPC@CFA.HARVARD.EDU
          URL http://www.cfa.harvard.edu/iau/mpc.html  ISSN 1523-6714

                                   2007 VG3

Observations:
     K07V03G* C2007 11 02.36028 03 06 41.11 -16 24 10.2          17.7 V EV022703
     K07V03G  C2007 11 02.36730 03 07 00.51 -16 25 12.8          17.8 V EV022703
     K07V03G  C2007 11 02.37425 03 07 19.56 -16 26 14.0          17.8 V EV022703
     K07V03G  C2007 11 02.38101 03 07 38.17 -16 27 13.5          17.6 V EV022703
     K07V03G  C2007 11 02.41493 03 09 10.98 -16 32 05.7          17.9 V EV022703
     K07V03G  C2007 11 02.41589 03 09 13.60 -16 32 13.5          17.9 V EV022703
     K07V03G  C2007 11 02.41684 03 09 16.20 -16 32 21.5          17.9 V EV022703
     K07V03G  C2007 11 02.41781 03 09 18.86 -16 32 30.0          17.9 V EV022703
     K07V03G  C2007 11 02.98110 03 34 09.81 -17 43 21.4                 EV022595
     K07V03G  C2007 11 03.01778 03 35 34.80 -17 47 07.6          18.4 V EV022595
     K07V03G  C2007 11 03.38954 03 49 38.31 -18 20 18.8          18.3 V EV022703
     K07V03G  C2007 11 03.39064 03 49 40.62 -18 20 24.5          18.0 V EV022703
     K07V03G  C2007 11 03.39170 03 49 42.78 -18 20 28.9          18.5 V EV022703
     K07V03G  C2007 11 03.39279 03 49 45.01 -18 20 34.2          18.1 V EV022703
     K07V03G  C2007 11 03.39605 03 49 51.81 -18 20 50.3          18.3 V EV022G96
     K07V03G  C2007 11 03.39769 03 49 55.12 -18 20 57.7          18.5 V EV022G96
     K07V03G  C2007 11 03.39932 03 49 58.51 -18 21 05.5          18.5 V EV022G96
     K07V03G  C2007 11 03.40103 03 50 02.00 -18 21 13.5          18.5 V EV022G96
     K07V03G  C2007 11 03.42406 03 50 48.85 -18 22 56.2          17.8 R EV022651
     K07V03G  C2007 11 03.42452 03 50 49.80 -18 22 59.0          17.9 R EV022651
     K07V03G  C2007 11 03.42498 03 50 50.70 -18 23 01.0          17.9 R EV022651
     K07V03G  C2007 11 03.95275 04 08 26.88 -18 59 07.2          18.4 R EV022473
     K07V03G  C2007 11 03.95931 04 08 38.38 -18 59 31.1          18.6 R EV022473
     K07V03G  C2007 11 03.99544 04 09 43.88 -19 01 41.3                 EV022J95
     K07V03G  C2007 11 03.99797 04 09 48.26 -19 01 49.9                 EV022J95
     K07V03G  C2007 11 04.00052 04 09 52.67 -19 01 58.2          18.7 R EV022J95
     K07V03G  C2007 11 04.65904 04 27 56.36 -19 26 10.5          20.2 R EV022D21
     K07V03G  C2007 11 04.66200 04 28 00.56 -19 26 17.9          19.9 R EV022D21
     K07V03G  C2007 11 04.66494 04 28 04.71 -19 26 25.5          19.2 R EV022D21

Observer details:
473 Remanzacco.  Observers L. Donato, M. Gonano, V. Gonano, E. Guido,
    V. Santini, G. Sostero.  0.45-m f/4.4 Newtonian reflector + CCD.
595 Farra d'Isonzo.  Observers L. Bittesini, G. Lombardi, E. Pettarin,
    F. Piani.  Measurers G. Lombardi, E. Pettarin.  0.40-m f/4.5 reflector
    + CCD.
651 Grasslands Observatory, Tucson.  Observer J. E. McGaha.  0.62-m f/5.1
    Newtonian reflector + CCD.
703 Catalina Sky Survey.  Observer E. C. Beshore.  Measurers E. C. Beshore,
    A. Boattini, G. J. Garradd, A. R. Gibbs, A. D. Grauer, R. E. Hill,
    R. A. Kowalski, S. M. Larson, R. H. McNaught.  0.68-m Schmidt + CCD.
D21 Shenton Park.  Observers P. Luckas, P. R. Holvorcem, M. Schwartz.
    Measurer P. R. Holvorcem.  0.35-m f/9.4 Schmidt-Cassegrain + CCD.
G96 Mt. Lemmon Survey.  Observer A. Boattini.  Measurers E. C. Beshore,
    A. Boattini, G. J. Garradd, A. R. Gibbs, A. D. Grauer, R. E. Hill,
    R. A. Kowalski, S. M. Larson, R. H. McNaught.  1.5-m reflector + CCD.
J95 Great Shefford.  Observer P. Birtwhistle.  0.40-m f/6.0 Schmidt-Cassegrain
    + CCD.

Orbital elements:
2007 VG3                                                 Earth MOID = 0.0163 AU
Epoch 2007 Oct. 27.0 TT = JDT 2454400.5                 MPC
M   0.16478              (2000.0)            P               Q
n   0.16626951     Peri.  174.77491     +0.86316406     -0.49276967
a   3.2753745      Node   215.44215     +0.45610750     +0.85449742
e   0.6921210      Incl.   10.94676     +0.21659585     +0.16435394
P   5.93           H   24.6           G   0.15           U   6
Residuals in seconds of arc
071102 703  0.7-  0.2-    071103 703  1.1-  0.5+    071103 651  0.1+  0.0
071102 703  0.4+  0.3-    071103 703  0.3-  0.0     071103 473  0.9-  1.3+
071102 703  0.3-  0.1-    071103 703  0.4-  0.6+    071103 473  0.5-  0.4+
071102 703  0.4+  0.3-    071103 703  0.5-  0.5+    071103 J95  0.3+  0.4-
071102 703  0.2+  0.0     071103 G96  1.0+  0.2-    071103 J95  0.1+  0.4-
071102 703  0.2+  0.3+    071103 G96  0.3+  0.1+    071104 J95  0.0   0.0
071102 703  0.2+  0.4+    071103 G96  1.1+  0.0     071104 D21  0.5-  0.9+
071102 703  0.4+  0.1+    071103 G96  1.0+  0.0     071104 D21  0.1-  0.5+
071102 595  1.4-  0.3-    071103 651  0.5+  0.6+    071104 D21  0.0   0.2-
071103 595  1.5-  0.0     071103 651  0.6+  0.1-

Ephemeris:
2007 VG3                 a,e,i = 3.28, 0.69, 11                  q = 1.0084
Date    TT    R. A. (2000) Decl.     Delta      r     Elong.  Phase     V
2007 10 27    21 37.68   +10 48.0    0.0333   1.009   115.1    63.2    19.5
2007 10 29    22 49.10   +04 41.4    0.0247   1.009   129.5    49.4    18.4
2007 10 31    00 45.07   -06 01.1    0.0208   1.011   149.4    30.0    17.5
2007 11 02    02 48.66   -15 19.5    0.0241   1.013   149.7    29.6    17.8
2007 11 04    04 09.77   -18 57.7    0.0324   1.016   138.6    40.2    18.8
2007 11 06    04 55.62   -19 58.1    0.0430   1.020   131.6    46.6    19.6
2007 11 08    05 22.77   -20 09.8    0.0544   1.025   127.7    49.9    20.2
2007 11 10    05 40.07   -20 05.9    0.0663   1.031   125.7    51.3    20.7
2007 11 12    05 51.78   -19 56.2    0.0785   1.037   124.8    51.6    21.1
2007 11 14    06 00.05   -19 44.1    0.0907   1.044   124.6    51.3    21.4
2007 11 16    06 06.06   -19 30.7    0.103    1.051   124.8    50.6    21.7
2007 11 18    06 10.51   -19 16.2    0.116    1.060   125.3    49.6    21.9
2007 11 20    06 13.83   -19 00.9    0.128    1.068   126.0    48.4    22.1
2007 11 22    06 16.31   -18 44.7    0.141    1.078   126.9    47.1    22.3
2007 11 24    06 18.13   -18 27.6    0.153    1.088   127.9    45.8    22.5
2007 11 26    06 19.44   -18 09.4    0.166    1.099   128.9    44.3    22.6

Gareth V. Williams           (C) Copyright 2007 MPC           M.P.E.C. 2007-V22

Read MPEC 2007-V21 Read MPEC 2007-V23


Our Web policy. Index to the CBAT/MPC/ICQ pages.

MPC

Valid HTML 4.01!